status,avgMeasuredTime,avgSpeed,extID,medianMeasuredTime,TIMESTAMP,vehicleCount,_id,REPORT_ID
OK,50,45,945,50,2014-08-01T08:00:00,6,20747000,195684
OK,56,40,945,56,2014-08-01T08:05:00,8,20747449,195684
OK,60,37,945,60,2014-08-01T08:10:00,6,20747822,195684
OK,56,40,945,56,2014-08-01T08:15:00,4,20748271,195684
OK,53,42,945,53,2014-08-01T08:20:00,6,20748720,195684
OK,54,41,945,54,2014-08-01T08:25:00,9,20749169,195684
OK,58,38,945,58,2014-08-01T08:30:00,8,20749618,195684
OK,58,38,945,58,2014-08-01T08:35:00,8,20750067,195684
OK,59,38,945,59,2014-08-01T08:40:00,9,20750516,195684
OK,55,41,945,55,2014-08-01T08:45:00,11,20750965,195684
OK,49,46,945,49,2014-08-01T08:50:00,9,20751414,195684
OK,52,43,945,52,2014-08-01T08:55:00,13,20751863,195684
OK,57,39,945,57,2014-08-01T09:00:00,14,20752312,195684
OK,45,50,945,45,2014-08-01T09:05:00,10,20752761,195684
OK,40,56,945,40,2014-08-01T09:10:00,10,20753210,195684
OK,53,42,945,53,2014-08-01T09:20:00,9,20754108,195684
OK,56,40,945,56,2014-08-01T09:25:00,12,20754557,195684
OK,92,24,945,92,2014-08-01T09:30:00,9,20755006,195684
OK,73,30,945,73,2014-08-01T09:35:00,11,20755455,195684
OK,58,38,945,58,2014-08-01T09:40:00,15,20755904,195684
OK,60,37,945,60,2014-08-01T09:45:00,10,20756353,195684
OK,59,38,945,59,2014-08-01T09:50:00,6,20756802,195684
OK,64,35,945,64,2014-08-01T09:55:00,11,20757251,195684
OK,56,40,945,56,2014-08-01T10:00:00,12,20757700,195684
OK,47,48,945,47,2014-08-01T10:05:00,8,20758149,195684
OK,67,33,945,67,2014-08-01T10:15:00,5,20759047,195684
OK,59,38,945,59,2014-08-01T10:20:00,9,20759496,195684
OK,47,48,945,47,2014-08-01T10:25:00,9,20759945,195684
OK,47,48,945,47,2014-08-01T10:30:00,10,20760394,195684
OK,52,43,945,52,2014-08-01T10:35:00,10,20760843,195684
OK,64,35,945,64,2014-08-01T10:40:00,7,20761292,195684
OK,69,32,945,69,2014-08-01T10:45:00,5,20761741,195684
OK,70,32,945,70,2014-08-01T10:50:00,7,20762190,195684
OK,70,32,945,70,2014-08-01T10:55:00,5,20762639,195684
OK,73,30,945,73,2014-08-01T11:00:00,8,20763088,195684
OK,70,32,945,70,2014-08-01T11:05:00,15,20763537,195684
OK,52,43,945,52,2014-08-01T11:10:00,16,20763986,195684
OK,51,44,945,51,2014-08-01T11:15:00,15,20764434,195684
OK,49,46,945,49,2014-08-01T11:20:00,10,20764883,195684
OK,46,49,945,46,2014-08-01T11:25:00,5,20765332,195684
OK,72,31,945,72,2014-08-01T11:30:00,7,20765781,195684
OK,76,29,945,76,2014-08-01T11:35:00,6,20766230,195684
OK,75,30,945,75,2014-08-01T11:40:00,2,20766679,195684
OK,48,47,945,48,2014-08-01T11:45:00,4,20767128,195684
OK,66,34,945,66,2014-08-01T11:50:00,11,20767577,195684
OK,74,30,945,74,2014-08-01T11:55:00,10,20768026,195684
OK,50,45,945,50,2014-08-01T12:00:00,10,20768475,195684
OK,55,41,945,55,2014-08-01T12:10:00,7,20769373,195684
OK,61,37,945,61,2014-08-01T12:15:00,9,20769822,195684
OK,64,35,945,64,2014-08-01T12:20:00,9,20770271,195684
OK,64,35,945,64,2014-08-01T12:25:00,9,20770720,195684
OK,81,27,945,81,2014-08-01T12:30:00,9,20771169,195684
OK,81,27,945,81,2014-08-01T12:35:00,6,20771618,195684
OK,61,37,945,61,2014-08-01T12:40:00,10,20772067,195684
OK,63,35,945,63,2014-08-01T12:45:00,12,20772516,195684
OK,82,27,945,82,2014-08-01T12:50:00,8,20772965,195684
OK,94,24,945,94,2014-08-01T12:55:00,7,20773414,195684
OK,111,20,945,111,2014-08-01T13:00:00,8,20773863,195684
OK,99,22,945,99,2014-08-01T13:05:00,10,20774312,195684
OK,111,20,945,111,2014-08-01T13:10:00,7,20774761,195684
OK,103,21,945,103,2014-08-01T13:15:00,4,20775210,195684
OK,94,24,945,94,2014-08-01T13:20:00,8,20775659,195684
OK,74,30,945,74,2014-08-01T13:25:00,11,20776108,195684
OK,74,30,945,74,2014-08-01T13:30:00,7,20776557,195684
OK,85,26,945,85,2014-08-01T13:35:00,8,20777006,195684
OK,87,25,945,87,2014-08-01T13:40:00,8,20777455,195684
OK,68,33,945,68,2014-08-01T13:45:00,9,20777904,195684
OK,52,43,945,52,2014-08-01T13:50:00,11,20778353,195684
OK,68,33,945,68,2014-08-01T14:00:00,6,20779251,195684
OK,69,32,945,69,2014-08-01T14:05:00,3,20779700,195684
OK,53,42,945,53,2014-08-01T14:10:00,3,20780149,195684
OK,69,32,945,69,2014-08-01T14:15:00,5,20780598,195684
OK,94,24,945,94,2014-08-01T14:20:00,3,20781047,195684
OK,56,40,945,56,2014-08-01T14:25:00,2,20781496,195684
OK,63,35,945,63,2014-08-01T14:30:00,6,20781945,195684
OK,62,36,945,62,2014-08-01T14:35:00,5,20782394,195684
OK,51,44,945,51,2014-08-01T14:40:00,2,20782843,195684
OK,56,40,945,56,2014-08-01T14:45:00,5,20783292,195684
OK,64,35,945,64,2014-08-01T14:50:00,9,20783741,195684
OK,58,38,945,58,2014-08-01T15:00:00,4,20784639,195684
OK,57,39,945,57,2014-08-01T15:05:00,3,20785088,195684
OK,48,47,945,48,2014-08-01T15:10:00,4,20785537,195684
OK,48,47,945,48,2014-08-01T15:15:00,4,20785986,195684
OK,57,39,945,57,2014-08-01T15:20:00,6,20786435,195684
OK,53,42,945,53,2014-08-01T15:25:00,7,20786884,195684
OK,68,33,945,68,2014-08-01T15:30:00,4,20787333,195684
OK,76,29,945,76,2014-08-01T15:35:00,3,20787782,195684
OK,61,37,945,61,2014-08-01T15:40:00,1,20788231,195684
OK,67,33,945,67,2014-08-01T15:45:00,4,20788680,195684
OK,65,34,945,65,2014-08-01T15:50:00,5,20789129,195684
OK,44,51,945,44,2014-08-01T15:55:00,1,20789578,195684
OK,67,33,945,67,2014-08-01T16:00:00,2,20790027,195684
OK,58,38,945,58,2014-08-01T16:05:00,4,20790476,195684
OK,56,40,945,56,2014-08-01T16:10:00,3,20790925,195684
OK,46,49,945,46,2014-08-01T16:15:00,6,20791374,195684
OK,44,51,945,44,2014-08-01T16:20:00,8,20791823,195684
OK,39,57,945,39,2014-08-01T16:25:00,4,20792272,195684
OK,44,51,945,44,2014-08-01T16:30:00,2,20792721,195684
OK,47,48,945,47,2014-08-01T16:35:00,1,20793170,195684
OK,47,48,945,47,2014-08-01T16:40:00,0,20793619,195684
OK,56,40,945,56,2014-08-01T16:45:00,1,20794068,195684
OK,50,45,945,50,2014-08-01T16:50:00,4,20794517,195684
OK,45,50,945,45,2014-08-01T16:55:00,3,20794966,195684
OK,50,45,945,50,2014-08-01T17:00:00,7,20795415,195684
OK,47,48,945,47,2014-08-01T17:05:00,8,20795864,195684
OK,41,55,945,41,2014-08-01T17:10:00,6,20796313,195684
OK,41,55,945,41,2014-08-01T17:15:00,5,20796762,195684
OK,47,48,945,47,2014-08-01T17:20:00,2,20797211,195684
OK,42,53,945,42,2014-08-01T17:25:00,3,20797660,195684
OK,56,40,945,56,2014-08-01T17:30:00,3,20798109,195684
OK,45,50,945,45,2014-08-01T17:35:00,3,20798558,195684
OK,41,55,945,41,2014-08-01T17:40:00,2,20799007,195684
OK,16,141,945,16,2014-08-01T17:45:00,1,20799456,195684
OK,38,59,945,38,2014-08-01T17:50:00,2,20799905,195684
OK,46,49,945,46,2014-08-01T17:55:00,3,20800354,195684
OK,46,49,945,46,2014-08-01T18:00:00,3,20800803,195684
OK,58,38,945,58,2014-08-01T18:05:00,1,20801252,195684
OK,45,50,945,45,2014-08-01T18:10:00,3,20801701,195684
OK,45,50,945,45,2014-08-01T18:15:00,3,20802150,195684
OK,50,45,945,50,2014-08-01T18:20:00,2,20802599,195684
OK,59,38,945,59,2014-08-01T18:25:00,3,20803048,195684
OK,62,36,945,62,2014-08-01T18:30:00,3,20803497,195684
OK,63,35,945,63,2014-08-01T18:35:00,3,20803946,195684
OK,59,38,945,59,2014-08-01T18:40:00,2,20804395,195684
OK,47,48,945,47,2014-08-01T18:45:00,1,20804844,195684
OK,45,50,945,45,2014-08-01T18:50:00,3,20805293,195684
OK,45,50,945,45,2014-08-01T18:55:00,3,20805742,195684
OK,71,31,945,71,2014-08-01T19:00:00,1,20806191,195684
OK,71,31,945,71,2014-08-01T19:05:00,2,20806640,195684
OK,71,31,945,71,2014-08-01T19:10:00,1,20807089,195684
OK,71,31,945,71,2014-08-01T19:15:00,0,20807538,195684
OK,49,46,945,49,2014-08-01T19:20:00,1,20807987,195684
OK,49,46,945,49,2014-08-01T19:25:00,3,20808436,195684
OK,49,46,945,49,2014-08-01T19:30:00,4,20808885,195684
OK,49,46,945,49,2014-08-01T19:35:00,2,20809334,195684
OK,49,46,945,49,2014-08-01T19:40:00,0,20809783,195684
OK,49,46,945,49,2014-08-01T19:45:00,0,20810232,195684
OK,49,46,945,49,2014-08-01T19:50:00,0,20810681,195684
OK,35,64,945,35,2014-08-01T19:55:00,2,20811130,195684
OK,41,55,945,41,2014-08-01T22:00:00,0,20816859,195684
OK,41,55,945,41,2014-08-02T00:00:00,0,20823298,195684
OK,41,55,945,41,2014-08-02T00:05:00,0,20823747,195684
OK,41,55,945,41,2014-08-02T00:10:00,0,20824196,195684
OK,41,55,945,41,2014-08-02T00:15:00,0,20824645,195684
OK,41,55,945,41,2014-08-02T00:20:00,0,20825094,195684
OK,41,55,945,41,2014-08-02T00:25:00,0,20825543,195684
OK,41,55,945,41,2014-08-02T00:30:00,0,20825992,195684
OK,41,55,945,41,2014-08-02T00:35:00,0,20826441,195684
OK,41,55,945,41,2014-08-02T00:40:00,0,20826890,195684
OK,41,55,945,41,2014-08-02T00:45:00,0,20827339,195684
OK,50,45,945,50,2014-08-02T00:50:00,1,20827788,195684
OK,50,45,945,50,2014-08-02T00:55:00,1,20828237,195684
OK,50,45,945,50,2014-08-02T01:00:00,0,20828686,195684
OK,50,45,945,50,2014-08-02T01:05:00,0,20829135,195684
OK,50,45,945,50,2014-08-02T01:10:00,0,20829584,195684
OK,50,45,945,50,2014-08-02T01:15:00,0,20830033,195684
OK,50,45,945,50,2014-08-02T01:20:00,0,20830482,195684
OK,50,45,945,50,2014-08-02T01:25:00,0,20830931,195684
OK,50,45,945,50,2014-08-02T01:30:00,0,20831380,195684
OK,50,45,945,50,2014-08-02T01:35:00,0,20831829,195684
OK,50,45,945,50,2014-08-02T01:40:00,0,20832278,195684
OK,50,45,945,50,2014-08-02T01:45:00,0,20832727,195684
OK,50,45,945,50,2014-08-02T01:50:00,0,20833176,195684
OK,50,45,945,50,2014-08-02T01:55:00,0,20833625,195684
OK,50,45,945,50,2014-08-02T02:00:00,0,20834074,195684
OK,50,45,945,50,2014-08-02T02:05:00,0,20834523,195684
OK,50,45,945,50,2014-08-02T02:10:00,0,20834972,195684
OK,50,45,945,50,2014-08-02T02:15:00,0,20835421,195684
OK,50,45,945,50,2014-08-02T02:20:00,0,20835870,195684
OK,50,45,945,50,2014-08-02T02:25:00,0,20836319,195684
OK,50,45,945,50,2014-08-02T02:30:00,0,20836768,195684
OK,50,45,945,50,2014-08-02T02:35:00,0,20837217,195684
OK,50,45,945,50,2014-08-02T02:40:00,0,20837666,195684
OK,50,45,945,50,2014-08-02T02:45:00,0,20838115,195684
OK,50,45,945,50,2014-08-02T02:50:00,0,20838564,195684
OK,50,45,945,50,2014-08-02T02:55:00,0,20839013,195684
OK,50,45,945,50,2014-08-02T03:00:00,0,20839462,195684
OK,50,45,945,50,2014-08-02T03:05:00,0,20839911,195684
OK,50,45,945,50,2014-08-02T03:10:00,0,20840360,195684
OK,50,45,945,50,2014-08-02T03:15:00,0,20840809,195684
OK,44,51,945,44,2014-08-02T03:20:00,1,20841258,195684
OK,44,51,945,44,2014-08-02T03:25:00,1,20841707,195684
OK,44,51,945,44,2014-08-02T03:30:00,0,20842156,195684
OK,44,51,945,44,2014-08-02T03:35:00,0,20842605,195684
OK,44,51,945,44,2014-08-02T03:40:00,0,20843054,195684
OK,33,68,945,33,2014-08-02T03:45:00,1,20843503,195684
OK,82,27,945,82,2014-08-02T03:50:00,2,20843952,195684
OK,47,48,945,47,2014-08-02T03:55:00,3,20844401,195684
OK,61,37,945,61,2014-08-02T06:00:00,3,20851855,195684
OK,52,43,945,52,2014-08-02T06:05:00,1,20852304,195684
OK,52,43,945,52,2014-08-02T06:10:00,4,20852753,195684
OK,53,42,945,53,2014-08-02T06:15:00,3,20853202,195684
OK,61,37,945,61,2014-08-02T06:20:00,0,20853651,195684
OK,52,43,945,52,2014-08-02T06:25:00,4,20854100,195684
OK,53,42,945,53,2014-08-02T06:30:00,5,20854549,195684
OK,43,52,945,43,2014-08-02T06:35:00,6,20854998,195684
OK,41,55,945,41,2014-08-02T06:40:00,5,20855447,195684
OK,64,35,945,64,2014-08-02T06:45:00,1,20855896,195684
OK,64,35,945,64,2014-08-02T06:50:00,1,20856345,195684
OK,57,39,945,57,2014-08-02T06:55:00,2,20856794,195684
OK,57,39,945,57,2014-08-02T07:00:00,2,20857243,195684
OK,65,34,945,65,2014-08-02T07:05:00,0,20857692,195684
OK,48,47,945,48,2014-08-02T07:10:00,2,20858141,195684
OK,43,52,945,43,2014-08-02T07:15:00,5,20858590,195684
OK,43,52,945,43,2014-08-02T07:20:00,5,20859039,195684
OK,45,50,945,45,2014-08-02T07:25:00,3,20859488,195684
OK,48,47,945,48,2014-08-02T07:30:00,6,20859937,195684
OK,46,49,945,46,2014-08-02T07:35:00,5,20860386,195684
OK,46,49,945,46,2014-08-02T07:40:00,3,20860835,195684
OK,60,37,945,60,2014-08-02T07:45:00,6,20861284,195684
OK,56,40,945,56,2014-08-02T07:50:00,5,20861733,195684
OK,56,40,945,56,2014-08-02T07:55:00,5,20862182,195684
OK,47,48,945,47,2014-08-02T08:00:00,7,20862631,195684
OK,54,41,945,54,2014-08-02T08:05:00,5,20863080,195684
OK,45,50,945,45,2014-08-02T08:10:00,5,20863529,195684
OK,41,55,945,41,2014-08-02T08:15:00,7,20863978,195684
OK,41,55,945,41,2014-08-02T08:20:00,5,20864427,195684
OK,60,37,945,60,2014-08-02T08:25:00,5,20864876,195684
OK,59,38,945,59,2014-08-02T08:30:00,8,20865325,195684
OK,46,49,945,46,2014-08-02T08:35:00,11,20865774,195684
OK,59,38,945,59,2014-08-02T08:40:00,8,20866223,195684
OK,58,38,945,58,2014-08-02T08:45:00,7,20866672,195684
OK,61,37,945,61,2014-08-02T08:50:00,10,20867121,195684
OK,61,37,945,61,2014-08-02T08:55:00,8,20867570,195684
OK,52,43,945,52,2014-08-02T09:00:00,5,20868019,195684
OK,59,38,945,59,2014-08-02T09:05:00,9,20868468,195684
OK,67,33,945,67,2014-08-02T09:10:00,9,20868917,195684
OK,75,30,945,75,2014-08-02T09:15:00,8,20869366,195684
OK,73,30,945,73,2014-08-02T09:20:00,7,20869815,195684
OK,74,30,945,74,2014-08-02T09:25:00,12,20870264,195684
OK,69,32,945,69,2014-08-02T09:30:00,10,20870713,195684
OK,66,34,945,66,2014-08-02T09:35:00,11,20871162,195684
OK,73,30,945,73,2014-08-02T09:40:00,10,20871611,195684
OK,67,33,945,67,2014-08-02T09:45:00,6,20872060,195684
OK,41,55,945,41,2014-08-02T09:50:00,9,20872509,195684
OK,50,45,945,50,2014-08-02T09:55:00,8,20872958,195684
OK,49,46,945,49,2014-08-02T10:00:00,7,20873407,195684
OK,53,42,945,53,2014-08-02T10:05:00,5,20873856,195684
OK,102,22,945,102,2014-08-02T10:10:00,6,20874305,195684
OK,68,33,945,68,2014-08-02T10:15:00,10,20874754,195684
OK,53,42,945,53,2014-08-02T10:20:00,8,20875203,195684
OK,58,38,945,58,2014-08-02T10:25:00,5,20875652,195684
OK,65,34,945,65,2014-08-02T10:30:00,7,20876101,195684
OK,66,34,945,66,2014-08-02T10:35:00,7,20876550,195684
OK,62,36,945,62,2014-08-02T10:40:00,8,20876999,195684
OK,72,31,945,72,2014-08-02T10:45:00,8,20877448,195684
OK,83,27,945,83,2014-08-02T10:50:00,7,20877897,195684
OK,94,24,945,94,2014-08-02T10:55:00,4,20878346,195684
OK,109,20,945,109,2014-08-02T11:00:00,4,20878795,195684
OK,55,41,945,55,2014-08-02T11:05:00,5,20879244,195684
OK,55,41,945,55,2014-08-02T11:10:00,7,20879693,195684
OK,42,53,945,42,2014-08-02T11:15:00,7,20880142,195684
OK,48,47,945,48,2014-08-02T11:20:00,8,20880591,195684
OK,54,41,945,54,2014-08-02T11:25:00,8,20881040,195684
OK,56,40,945,56,2014-08-02T11:30:00,5,20881489,195684
OK,45,50,945,45,2014-08-02T11:35:00,4,20881938,195684
OK,50,45,945,50,2014-08-02T11:40:00,7,20882387,195684
OK,67,33,945,67,2014-08-02T11:45:00,7,20882836,195684
OK,70,32,945,70,2014-08-02T11:50:00,5,20883285,195684
OK,58,38,945,58,2014-08-02T11:55:00,4,20883734,195684
OK,54,41,945,54,2014-08-02T12:00:00,6,20884183,195684
OK,58,38,945,58,2014-08-02T12:05:00,6,20884632,195684
OK,53,42,945,53,2014-08-02T12:10:00,7,20885081,195684
OK,52,43,945,52,2014-08-02T12:15:00,8,20885530,195684
OK,51,44,945,51,2014-08-02T12:20:00,8,20885979,195684
OK,69,32,945,69,2014-08-02T12:25:00,9,20886428,195684
OK,77,29,945,77,2014-08-02T12:30:00,8,20886877,195684
OK,64,35,945,64,2014-08-02T12:35:00,5,20887326,195684
OK,58,38,945,58,2014-08-02T12:40:00,5,20887775,195684
OK,64,35,945,64,2014-08-02T12:45:00,6,20888224,195684
OK,65,34,945,65,2014-08-02T12:50:00,6,20888673,195684
OK,55,41,945,55,2014-08-02T12:55:00,10,20889122,195684
OK,46,49,945,46,2014-08-02T13:00:00,7,20889571,195684
OK,98,23,945,98,2014-08-02T13:05:00,6,20890020,195684
OK,81,27,945,81,2014-08-02T13:10:00,9,20890469,195684
OK,55,41,945,55,2014-08-02T13:15:00,8,20890918,195684
OK,60,37,945,60,2014-08-02T13:20:00,6,20891367,195684
OK,48,47,945,48,2014-08-02T13:25:00,7,20891816,195684
OK,46,49,945,46,2014-08-02T13:30:00,6,20892265,195684
OK,60,37,945,60,2014-08-02T13:35:00,2,20892714,195684
OK,61,37,945,61,2014-08-02T13:40:00,3,20893163,195684
OK,54,41,945,54,2014-08-02T13:45:00,12,20893612,195684
OK,60,37,945,60,2014-08-02T13:50:00,13,20894061,195684
OK,74,30,945,74,2014-08-02T13:55:00,4,20894510,195684
OK,51,44,945,51,2014-08-02T14:00:00,4,20894959,195684
OK,47,48,945,47,2014-08-02T14:05:00,6,20895408,195684
OK,43,52,945,43,2014-08-02T14:10:00,5,20895857,195684
OK,43,52,945,43,2014-08-02T14:15:00,8,20896306,195684
OK,44,51,945,44,2014-08-02T14:20:00,9,20896755,195684
OK,41,55,945,41,2014-08-02T14:25:00,4,20897204,195684
OK,55,41,945,55,2014-08-02T14:30:00,6,20897653,195684
OK,55,41,945,55,2014-08-02T14:35:00,8,20898102,195684
OK,55,41,945,55,2014-08-02T14:40:00,4,20898551,195684
OK,51,44,945,51,2014-08-02T14:45:00,7,20899000,195684
OK,51,44,945,51,2014-08-02T14:50:00,7,20899449,195684
OK,56,40,945,56,2014-08-02T14:55:00,6,20899898,195684
OK,55,41,945,55,2014-08-02T15:00:00,5,20900347,195684
OK,46,49,945,46,2014-08-02T15:05:00,2,20900796,195684
OK,49,46,945,49,2014-08-02T15:10:00,2,20901245,195684
OK,54,41,945,54,2014-08-02T15:15:00,2,20901694,195684
OK,59,38,945,59,2014-08-02T15:20:00,3,20902143,195684
OK,45,50,945,45,2014-08-02T15:25:00,3,20902592,195684
OK,54,41,945,54,2014-08-02T15:30:00,6,20903041,195684
OK,46,49,945,46,2014-08-02T15:35:00,6,20903490,195684
OK,41,55,945,41,2014-08-02T15:40:00,2,20903939,195684
OK,67,33,945,67,2014-08-02T15:45:00,5,20904388,195684
OK,52,43,945,52,2014-08-02T15:50:00,9,20904837,195684
OK,46,49,945,46,2014-08-02T15:55:00,4,20905286,195684
OK,39,57,945,39,2014-08-02T16:00:00,1,20905735,195684
OK,53,42,945,53,2014-08-02T16:05:00,3,20906184,195684
OK,52,43,945,52,2014-08-02T16:10:00,7,20906633,195684
OK,55,41,945,55,2014-08-02T16:15:00,4,20907082,195684
OK,58,38,945,58,2014-08-02T16:20:00,4,20907531,195684
OK,54,41,945,54,2014-08-02T16:25:00,5,20907980,195684
OK,49,46,945,49,2014-08-02T16:30:00,3,20908429,195684
OK,44,51,945,44,2014-08-02T16:35:00,4,20908878,195684
OK,49,46,945,49,2014-08-02T16:40:00,5,20909327,195684
OK,46,49,945,46,2014-08-02T16:45:00,7,20909776,195684
OK,45,50,945,45,2014-08-02T16:50:00,5,20910225,195684
OK,43,52,945,43,2014-08-02T16:55:00,4,20910674,195684
OK,44,51,945,44,2014-08-02T17:00:00,3,20911123,195684
OK,43,52,945,43,2014-08-02T17:05:00,4,20911572,195684
OK,43,52,945,43,2014-08-02T17:10:00,4,20912021,195684
OK,45,50,945,45,2014-08-02T17:15:00,1,20912470,195684
OK,34,66,945,34,2014-08-02T17:20:00,3,20912919,195684
OK,46,49,945,46,2014-08-02T17:25:00,4,20913368,195684
OK,52,43,945,52,2014-08-02T17:30:00,2,20913817,195684
OK,44,51,945,44,2014-08-02T17:35:00,3,20914266,195684
OK,45,50,945,45,2014-08-02T17:40:00,5,20914715,195684
OK,50,45,945,50,2014-08-02T17:45:00,6,20915164,195684
OK,50,45,945,50,2014-08-02T17:50:00,5,20915613,195684
OK,54,41,945,54,2014-08-02T17:55:00,2,20916062,195684
OK,54,41,945,54,2014-08-02T18:00:00,0,20916511,195684
OK,54,41,945,54,2014-08-02T18:05:00,0,20916960,195684
OK,54,41,945,54,2014-08-02T18:10:00,0,20917409,195684
OK,48,47,945,48,2014-08-02T18:15:00,2,20917858,195684
OK,48,47,945,48,2014-08-02T18:20:00,2,20918307,195684
OK,36,62,945,36,2014-08-02T18:25:00,2,20918756,195684
OK,32,70,945,32,2014-08-02T18:30:00,3,20919205,195684
OK,38,59,945,38,2014-08-02T18:35:00,4,20919654,195684
OK,48,47,945,48,2014-08-02T18:40:00,4,20920103,195684
OK,47,48,945,47,2014-08-02T18:45:00,3,20920552,195684
OK,45,50,945,45,2014-08-02T18:50:00,5,20921001,195684
OK,43,52,945,43,2014-08-02T18:55:00,4,20921450,195684
OK,51,44,945,51,2014-08-02T19:00:00,1,20921899,195684
OK,51,44,945,51,2014-08-02T19:05:00,1,20922348,195684
OK,51,44,945,51,2014-08-02T19:10:00,0,20922797,195684
OK,44,51,945,44,2014-08-02T19:15:00,2,20923246,195684
OK,52,43,945,52,2014-08-02T19:20:00,4,20923695,195684
OK,46,49,945,46,2014-08-02T19:25:00,5,20924144,195684
OK,41,55,945,41,2014-08-02T19:30:00,2,20924593,195684
OK,39,57,945,39,2014-08-02T19:35:00,0,20925042,195684
OK,60,37,945,60,2014-08-02T19:40:00,2,20925491,195684
OK,62,36,945,62,2014-08-02T19:45:00,4,20925940,195684
OK,36,62,945,36,2014-08-02T19:50:00,2,20926389,195684
OK,36,62,945,36,2014-08-02T19:55:00,2,20926838,195684
OK,26,86,945,26,2014-08-02T20:00:00,0,20927287,195684
OK,49,46,945,49,2014-08-02T20:05:00,1,20927736,195684
OK,67,33,945,67,2014-08-02T20:10:00,2,20928185,195684
OK,85,26,945,85,2014-08-02T20:15:00,1,20928634,195684
OK,85,26,945,85,2014-08-02T20:20:00,0,20929083,195684
OK,85,26,945,85,2014-08-02T20:25:00,0,20929532,195684
OK,85,26,945,85,2014-08-02T20:30:00,0,20929981,195684
OK,47,48,945,47,2014-08-02T20:35:00,1,20930430,195684
OK,36,62,945,36,2014-08-02T20:40:00,2,20930879,195684
OK,26,86,945,26,2014-08-02T20:45:00,0,20931328,195684
OK,47,48,945,47,2014-08-02T20:50:00,2,20931777,195684
OK,48,47,945,48,2014-08-02T20:55:00,2,20932226,195684
OK,47,48,945,47,2014-08-02T21:00:00,1,20932675,195684
OK,47,48,945,47,2014-08-02T21:05:00,0,20933124,195684
OK,47,48,945,47,2014-08-02T21:10:00,0,20933573,195684
OK,47,48,945,47,2014-08-02T21:15:00,0,20934022,195684
OK,47,48,945,47,2014-08-02T21:20:00,0,20934471,195684
OK,47,48,945,47,2014-08-02T21:25:00,0,20934920,195684
OK,47,48,945,47,2014-08-02T21:30:00,0,20935369,195684
OK,47,48,945,47,2014-08-02T21:35:00,0,20935818,195684
OK,47,48,945,47,2014-08-02T21:40:00,0,20936267,195684
OK,47,48,945,47,2014-08-02T21:45:00,0,20936716,195684
OK,47,48,945,47,2014-08-02T21:50:00,0,20937165,195684
OK,47,48,945,47,2014-08-02T21:55:00,0,20937614,195684
OK,47,48,945,47,2014-08-02T22:00:00,0,20938063,195684
OK,47,48,945,47,2014-08-02T22:05:00,0,20938512,195684
OK,47,48,945,47,2014-08-02T22:10:00,0,20938961,195684
OK,47,48,945,47,2014-08-02T22:15:00,0,20939410,195684
OK,47,48,945,47,2014-08-02T22:20:00,0,20939859,195684
OK,47,48,945,47,2014-08-02T22:25:00,0,20940308,195684
OK,47,48,945,47,2014-08-02T22:30:00,0,20940757,195684
OK,47,48,945,47,2014-08-02T22:35:00,0,20941206,195684
OK,47,48,945,47,2014-08-02T22:40:00,0,20941655,195684
OK,47,48,945,47,2014-08-02T22:45:00,0,20942104,195684
OK,47,48,945,47,2014-08-02T22:50:00,0,20942553,195684
OK,47,48,945,47,2014-08-02T22:55:00,0,20943002,195684
OK,47,48,945,47,2014-08-02T23:00:00,0,20943451,195684
OK,47,48,945,47,2014-08-02T23:10:00,0,20943900,195684
OK,47,48,945,47,2014-08-02T23:15:00,0,20944349,195684
OK,54,41,945,54,2014-08-02T23:20:00,1,20944798,195684
OK,54,41,945,54,2014-08-02T23:25:00,1,20945247,195684
OK,54,41,945,54,2014-08-02T23:30:00,0,20945696,195684
OK,54,41,945,54,2014-08-02T23:35:00,0,20946145,195684
OK,54,41,945,54,2014-08-02T23:40:00,0,20946594,195684
OK,54,41,945,54,2014-08-02T23:45:00,0,20947043,195684
OK,54,41,945,54,2014-08-02T23:50:00,0,20947492,195684
OK,54,41,945,54,2014-08-02T23:55:00,0,20947941,195684
OK,54,41,945,54,2014-08-03T00:00:00,0,20948390,195684
OK,54,41,945,54,2014-08-03T00:05:00,0,20948839,195684
OK,54,41,945,54,2014-08-03T00:10:00,0,20949287,195684
OK,54,41,945,54,2014-08-03T00:15:00,0,20949736,195684
OK,54,41,945,54,2014-08-03T00:20:00,0,20950185,195684
OK,54,41,945,54,2014-08-03T00:25:00,0,20950634,195684
OK,54,41,945,54,2014-08-03T00:30:00,0,20951083,195684
OK,54,41,945,54,2014-08-03T00:35:00,0,20951532,195684
OK,54,41,945,54,2014-08-03T00:40:00,0,20951981,195684
OK,54,41,945,54,2014-08-03T00:45:00,0,20952430,195684
OK,54,41,945,54,2014-08-03T00:50:00,0,20952879,195684
OK,54,41,945,54,2014-08-03T00:55:00,0,20953328,195684
OK,54,41,945,54,2014-08-03T01:00:00,0,20953777,195684
OK,54,41,945,54,2014-08-03T01:05:00,0,20954226,195684
OK,54,41,945,54,2014-08-03T01:10:00,0,20954675,195684
OK,54,41,945,54,2014-08-03T01:15:00,0,20955124,195684
OK,54,41,945,54,2014-08-03T01:20:00,0,20955573,195684
OK,54,41,945,54,2014-08-03T01:25:00,0,20956022,195684
OK,54,41,945,54,2014-08-03T01:30:00,0,20956471,195684
OK,54,41,945,54,2014-08-03T01:35:00,0,20956920,195684
OK,54,41,945,54,2014-08-03T01:40:00,0,20957369,195684
OK,54,41,945,54,2014-08-03T01:45:00,0,20957818,195684
OK,54,41,945,54,2014-08-03T01:50:00,0,20958267,195684
OK,54,41,945,54,2014-08-03T01:55:00,0,20958716,195684
OK,54,41,945,54,2014-08-03T02:00:00,0,20959165,195684
OK,54,41,945,54,2014-08-03T02:05:00,0,20959614,195684
OK,54,41,945,54,2014-08-03T02:10:00,0,20960063,195684
OK,54,41,945,54,2014-08-03T02:15:00,0,20960512,195684
OK,54,41,945,54,2014-08-03T02:20:00,0,20960961,195684
OK,17,132,945,17,2014-08-03T02:25:00,1,20961410,195684